Cincinnati, OH

4:22 AM EDT on November 01, 2014 (GMT -0400)
Cincinnati Municipal-Lunken | Change Station
CLOSE
Current Station
Airport
Location: Cincinnati,
Elevation: 482 ft
Nearby Weather Stations
Active Advisory: Freeze Warning

Elev 482 ft 39.10 °N, 84.42 °W | Updated 29 minutes ago

Snow
Snow
35 °F
Feels Like 26 °F
N
14
Wind Variable Wind from North
Gusts 22 mph

Today
High -- | Low -- °F
--% Chance of Precip.
Yesterday
High -- | Low -- °F
Precip. -- in
8:05 AM 6:37 PM
Waxing Gibbous, 64% visible
Pressure 30.10 in
Visibility 8.0 miles
Clouds Mostly Cloudy 2500 ft
Overcast 2900 ft
Windchill 26 °F
Dew Point 30 °F
Humidity 82%
Rainfall 0.00 in
Snow Depth Not available.
UV 0 out of 12
Pollen .10 out of 12
Air Quality Not available.
Flu Activity Not available.
METAR KLUK 010753Z AUTO 35012G19KT 8SM -SN BKN025 OVC029 02/M01 A3009 RMK AO2 PK WND 35028/0720 UPB0659E35SNB35 SLP191 P0000 T00171011

More Conditions Fewer Conditions

Pressure 30.10 in
Visibility 8.0 miles
Clouds Mostly Cloudy 2500 ft
Overcast 2900 ft
Windchill 26 °F
Dew Point 30 °F
Humidity 82%
Rainfall 0.00 in
Snow Depth Not available.
UV 0 out of 12
Pollen .10 out of 12
Air Quality Not available.
Flu Activity Not available.
METAR KLUK 010753Z AUTO 35012G19KT 8SM -SN BKN025 OVC029 02/M01 A3009 RMK AO2 PK WND 35028/0720 UPB0659E35SNB35 SLP191 P0000 T00171011

More Conditions Fewer Conditions

10-Day Weather Forecast

Almanac

Astronomy

Nov. 01, 2014 Rise Set
Actual Time
Civil Twilight
Nautical Twilight
Astronomical Twilight
Moon
Length of Visible Light
Length of Day
Tomorrow will be .
, % of the Moon is Illuminated

Today's Extremes

State Highs State Lows

Community

WunderPhotos

Upload Photos

1,766,866 photos uploaded!

WunderBlogs® & News

Nearby

Air Quality

  Air Quality AQ Index Pollutant
Not available.

Snow Depth

Station Depth Elevation

Earthquake Activity

City Distance Mag. Time & Date
Minimum magnitude displayed is 2.5.

Coastal Water Temperatures

Place Temperature

Nearby Weather Stations